[[{"header":{"parameterUnit":"m.s-1","parameterCategory":1,"la1":30.2991,"la2":30.254,"lo1":-89.0895,"lo2":-89.0444,"dy":0.0017,"dx":0.0017,"nx":28,"ny":28,"refTime":"2025-04-01T09:00:00:Z","depth":0,"parameterNumber":2,"parameterNumberName":"U-component_of_WINDS"},"data":[0,0,0,0,0,0,0,0,0,0,0,0,0,0,0,0,0,0,0,0,0,0,0,0,0,0,0,0,0,0,0,0,0,0,0,0,0,0,0,0,0,0,0,0,0,0,0,0,0,0,0,0,0,0,0,0,0,0,-4.4589,-4.459,0,-4.4718,-4.4719,-4.4721,-4.4746,-4.4745,-4.4744,-4.4743,-4.4873,-4.4877,-4.4882,0,0,0,0,0,0,0,0,0,0,0,0,0,-4.4363,-4.4367,-4.4589,-4.459,-4.4592,-4.4718,-4.4719,-4.4721,-4.4746,-4.4745,-4.4743,-4.4742,-4.4872,-4.4877,-4.4882,0,0,0,0,0,0,0,0,0,0,0,0,0,-4.4473,-4.4368,-4.4589,-4.462,-4.4624,-4.4717,-4.472,-4.4722,-4.4746,-4.4745,-4.4743,-4.4742,-4.487,-4.4876,-4.4883,-4.4954,0,0,-4.4903,-4.4906,0,0,0,0,0,0,0,0,-4.4467,-4.4481,-4.4613,-4.4618,-4.4622,-4.4714,-4.4688,-4.48,-4.4746,-4.47,-4.4743,-4.4741,-4.4821,-4.4832,-4.4859,-4.496,-4.4966,-4.4904,-4.4908,-4.491,-4.4912,0,0,0,0,0,0,0,-4.4459,-4.4476,-4.464,-4.4615,-4.4621,-4.4627,-4.4641,-4.4709,-4.4767,-4.4703,-4.4706,-4.4721,-4.4823,-4.4853,-4.4862,-4.4968,-4.4903,-4.4909,-4.4913,-4.4916,-4.5133,-4.5135,0,0,0,0,0,0,-4.4446,-4.4469,-4.4636,-4.4644,-4.4539,-4.4632,-4.4648,-4.4686,-4.4767,-4.4777,-4.4722,-4.4721,-4.4842,-4.4855,-4.4867,-4.4955,-4.491,-4.4917,-4.492,-4.5132,-4.5134,-4.5136,0,0,0,0,0,0,-4.4441,-4.4461,-4.4631,-4.4557,-4.4579,-4.4637,-4.4681,-4.469,-4.4719,-4.4781,-4.4791,-4.4741,-4.4842,-4.4858,-4.4932,-4.496,-4.492,-4.4926,-4.513,-4.5132,-4.5135,-4.5132,0,0,0,0,0,0,-4.4435,-4.4459,-4.4487,-4.4558,-4.4583,-4.4694,-4.4682,-4.4693,-4.4731,-4.4731,-4.4801,-4.4812,-4.4842,-4.4922,-4.4939,-4.4968,-4.4931,-4.5127,-4.5131,-4.5134,-4.513,-4.5134,-4.5138,0,0,0,0,0,-4.4426,-4.448,-4.4488,-4.4508,-4.4619,-4.4695,-4.471,-4.4744,-4.4733,-4.4761,-4.4801,-4.4809,-4.4955,-4.493,-4.4949,-4.4981,-4.5126,-4.513,-4.5134,-4.5128,-4.5134,-4.5138,0,0,0,0,0,0,-4.441,-4.449,-4.4499,-4.4578,-4.463,-4.4699,-4.4736,-4.4749,-4.4804,-4.4802,-4.4841,-4.4857,-4.4929,-4.4963,-4.4933,-4.5054,-4.504,-4.5048,-4.5029,-4.5034,-4.5038,-4.5028,-4.4936,0,0,0,0,0,-4.4416,-4.4472,-4.4539,-4.4602,-4.4627,-4.4677,-4.4712,-4.4734,-4.4788,-4.481,-4.4855,-4.4908,-4.4965,-4.5002,-4.5059,-4.5136,-4.5151,-4.5167,-4.5171,-4.5174,-4.518,-4.5223,-4.523,-4.5149,-4.5149,-4.5149,0,0,-4.4428,-4.4479,-4.4511,-4.46,-4.4642,-4.4698,-4.4695,-4.4755,-4.4797,-4.4819,-4.4892,-4.4927,-4.4988,-4.5064,-4.51,-4.5094,-4.5206,-4.518,-4.5182,-4.5186,-4.5228,-4.5235,-4.5242,-4.5152,-4.5151,-4.5151,0,0,-4.4479,-4.4523,-4.458,-4.4623,-4.4688,-4.4721,-4.4735,-4.4803,-4.4827,-4.4901,-4.4919,-4.497,-4.5068,-4.5111,-4.5145,-4.5213,-4.5223,-4.5231,-4.5251,-4.5292,-4.5299,-4.5304,-4.5327,-4.5335,-4.5237,-4.5237,-4.5237,0,-4.4485,-4.4571,-4.4608,-4.4667,-4.4704,-4.4729,-4.4786,-4.4826,-4.4906,-4.4931,-4.4924,-4.5049,-4.5092,-4.5177,-4.5194,-4.5222,-4.5238,-4.5222,-4.5295,-4.5301,-4.5307,-4.5329,-4.5338,-4.5237,-4.5237,-4.5237,-4.5237,0,-4.4575,-4.4634,-4.4673,-4.4749,-4.4792,-4.485,-4.4895,-4.4934,-4.4952,-4.4986,-4.5061,-4.5114,-4.5181,-4.5204,-4.5222,-4.5292,-4.5287,-4.5287,-4.5273,-4.5315,-4.5336,-4.5345,-4.5238,-4.5237,-4.5237,-4.5237,0,0,-4.4617,-4.4714,-4.4728,-4.4762,-4.4836,-4.4883,-4.4942,-4.5008,-4.504,-4.5095,-4.5144,-4.5228,-4.5229,-4.5268,-4.5292,-4.5328,-4.5377,-4.5324,-4.5326,-4.5331,-4.5456,-4.5454,-4.5463,-4.5385,-4.5387,-4.5388,-4.5451,0,-4.4675,-4.4781,-4.4816,-4.4904,-4.4959,-4.4983,-4.5035,-4.5085,-4.5119,-4.517,-4.5207,-4.5265,-4.5262,-4.5286,-4.5323,-4.5363,-4.5402,-4.536,-4.543,-4.5433,-4.5412,-4.5475,-4.5473,-4.5528,-4.5459,-4.5461,-4.5462,0,-4.4756,-4.4812,-4.4905,-4.4972,-4.4997,-4.5042,-4.5106,-4.5155,-4.5213,-4.5235,-4.5279,-4.53,-4.5363,-4.5347,-4.5433,-4.5403,-4.5434,-4.5458,-4.5461,-4.5467,-4.5448,-4.548,-4.5547,-4.5555,-4.5476,-4.5475,-4.5474,0,-4.4775,-4.4874,-4.4943,-4.4972,-4.5053,-4.5084,-4.5119,-4.5175,-4.5213,-4.5269,-4.5293,-4.5356,-4.5389,-4.5437,-4.5475,-4.546,-4.5557,-4.5544,-4.5575,-4.5574,-4.5593,-4.559,-4.5663,-4.5616,-4.5616,-4.5616,-4.5616,0,-4.4835,-4.489,-4.4952,-4.4994,-4.5057,-4.5098,-4.5159,-4.5195,-4.5246,-4.5295,-4.532,-4.5366,-4.5414,-4.5465,-4.5495,-4.5561,-4.5577,-4.5595,-4.5602,-4.5592,-4.5589,-4.5611,-4.5607,-4.5618,-4.5618,-4.5617,-4.5617,0,-4.4866,-4.491,-4.4986,-4.5056,-4.5075,-4.5118,-4.5178,-4.5219,-4.5254,-4.5316,-4.5333,-4.5388,-4.545,-4.5493,-4.5573,-4.5593,-4.5663,-4.5671,-4.5644,-4.5647,-4.5675,-4.5671,-4.5762,-4.5776,-4.5722,-4.5722,-4.5723,0,-4.49,-4.4943,-4.5018,-4.5053,-4.5088,-4.5144,-4.5183,-4.5225,-4.5264,-4.5334,-4.5366,-4.543,-4.5484,-4.5582,-4.5628,-4.569,-4.5697,-4.5725,-4.5707,-4.5695,-4.5696,-4.5692,-4.5696,-4.5727,-4.5728,-4.5728,-4.5728,0,-4.4955,-4.4975,-4.503,-4.5093,-4.5138,-4.519,-4.5241,-4.5268,-4.5319,-4.5362,-4.5426,-4.5467,-4.5549,-4.5612,-4.5678,-4.5713,-4.5729,-4.5734,-4.5745,-4.5733,-4.5715,-4.5724,-4.5649,-4.5731,-4.5731,-4.5731,-4.5731,-4.5731,-4.4988,-4.5027,-4.5086,-4.5147,-4.519,-4.5238,-4.528,-4.5321,-4.5375,-4.5444,-4.5466,-4.5532,-4.559,-4.568,-4.5716,-4.5769,-4.5766,-4.5781,-4.5785,-4.5787,-4.5786,-4.5709,-4.5781,-4.5781,-4.5781,-4.5781,-4.5781,0,-4.5043,-4.5083,-4.5138,-4.5209,-4.5256,-4.5269,-4.5326,-4.5365,-4.5423,-4.5475,-4.5527,-4.5601,-4.5662,-4.5714,-4.5778,-4.5809,-4.5818,-4.5824,-4.5821,-4.5829,-4.5786,-4.577,-4.5816,-4.5816,-4.5816,-4.5816,-4.5816,-4.5816,-4.5077,-4.5144,-4.5171,-4.526,-4.5299,-4.5364,-4.5396,-4.544,-4.5482,-4.5563,-4.5614,-4.5648,-4.57,-4.5768,-4.5824,-4.5838,-4.5859,-4.5864,-4.5879,-4.5836,-4.5832,-4.5828,-4.5813,-4.5868,-4.5868,-4.5918,-4.5918,-4.5919]},{"header":{"parameterUnit":"m.s-1","parameterCategory":1,"la1":30.2991,"la2":30.254,"lo1":-89.0895,"lo2":-89.0444,"dy":0.0017,"dx":0.0017,"nx":28,"ny":28,"refTime":"2025-04-01T09:00:00:Z","depth":0,"parameterNumber":3,"parameterNumberName":"V-component_of_WINDS"},"data":[0,0,0,0,0,0,0,0,0,0,0,0,0,0,0,0,0,0,0,0,0,0,0,0,0,0,0,0,0,0,0,0,0,0,0,0,0,0,0,0,0,0,0,0,0,0,0,0,0,0,0,0,0,0,0,0,0,0,5.3189,5.319,0,5.3311,5.3312,5.3314,5.3327,5.3326,5.3324,5.3323,5.3448,5.3452,5.3456,0,0,0,0,0,0,0,0,0,0,0,0,0,5.2966,5.297,5.3188,5.319,5.3192,5.3311,5.3313,5.3314,5.3327,5.3326,5.3324,5.3323,5.3446,5.3451,5.3457,0,0,0,0,0,0,0,0,0,0,0,0,0,5.3073,5.2972,5.3188,5.3212,5.3216,5.3311,5.3313,5.3315,5.3327,5.3326,5.3324,5.3322,5.3444,5.3451,5.3457,5.3536,0,0,5.3478,5.3481,0,0,0,0,0,0,0,0,5.3067,5.3081,5.3207,5.3211,5.3215,5.3302,5.328,5.3389,5.3328,5.3285,5.3323,5.3321,5.34,5.3411,5.3438,5.3542,5.3547,5.3478,5.3483,5.3485,5.3487,0,0,0,0,0,0,0,5.306,5.3076,5.3237,5.3209,5.3214,5.3217,5.3231,5.3301,5.3352,5.3289,5.329,5.3304,5.3402,5.3431,5.3441,5.3549,5.3478,5.3484,5.3488,5.3491,5.3727,5.3729,0,0,0,0,0,0,5.3048,5.307,5.3233,5.3241,5.3135,5.3223,5.3238,5.3276,5.3351,5.3361,5.3306,5.3304,5.3421,5.3433,5.3445,5.3544,5.3485,5.3492,5.3495,5.3725,5.3728,5.373,0,0,0,0,0,0,5.3043,5.3062,5.3228,5.3156,5.3177,5.3229,5.3272,5.3279,5.3308,5.3364,5.3373,5.3326,5.342,5.3436,5.3514,5.3549,5.3495,5.3501,5.3722,5.3726,5.3729,5.3742,0,0,0,0,0,0,5.3037,5.306,5.309,5.3156,5.3181,5.3295,5.3274,5.3283,5.332,5.3319,5.3385,5.3394,5.3419,5.3504,5.3521,5.3557,5.3506,5.3719,5.3724,5.3728,5.3739,5.3745,5.3751,0,0,0,0,0,5.3029,5.3088,5.3092,5.3112,5.322,5.3297,5.3311,5.3339,5.3323,5.3354,5.339,5.3392,5.3542,5.3512,5.3531,5.357,5.3717,5.3723,5.3727,5.3736,5.3744,5.3751,0,0,0,0,0,0,5.3024,5.3097,5.3102,5.3185,5.3235,5.3299,5.3339,5.3346,5.3401,5.3398,5.343,5.3445,5.3523,5.3554,5.3519,5.3651,5.3628,5.3637,5.3628,5.3636,5.3643,5.3634,5.3512,0,0,0,0,0,5.3033,5.309,5.315,5.3218,5.3243,5.3287,5.3321,5.3339,5.3391,5.3412,5.3454,5.3505,5.3564,5.3602,5.3658,5.3743,5.3759,5.3779,5.3786,5.379,5.3798,5.3848,5.3858,5.3747,5.3747,5.3747,0,0,5.3052,5.3099,5.3132,5.3218,5.3259,5.3318,5.3304,5.3366,5.341,5.3421,5.3499,5.3531,5.359,5.3673,5.3712,5.3701,5.3833,5.3797,5.38,5.3806,5.3854,5.3865,5.3874,5.375,5.375,5.3749,0,0,5.3116,5.3156,5.3218,5.326,5.3322,5.3351,5.3366,5.343,5.3452,5.3531,5.3541,5.3594,5.3694,5.3737,5.3771,5.3854,5.3859,5.3872,5.3905,5.3953,5.3962,5.397,5.4001,5.4012,5.3879,5.3879,5.3879,0,5.3131,5.322,5.3249,5.3312,5.335,5.3364,5.3428,5.3466,5.3544,5.357,5.3558,5.3686,5.3726,5.382,5.3841,5.3868,5.3887,5.3865,5.3958,5.3966,5.3974,5.4005,5.4016,5.3881,5.388,5.388,5.388,0,5.3236,5.3298,5.334,5.3417,5.3459,5.3522,5.3561,5.3602,5.3616,5.3647,5.3727,5.3777,5.3845,5.3869,5.3882,5.3966,5.3958,5.3951,5.3929,5.3986,5.4015,5.4027,5.3882,5.3882,5.3882,5.3881,0,0,5.3301,5.3394,5.3409,5.3445,5.3515,5.3564,5.3628,5.3696,5.373,5.3783,5.3839,5.3925,5.392,5.3959,5.3978,5.402,5.4086,5.4009,5.4011,5.4023,5.4183,5.4189,5.4202,5.409,5.4092,5.4094,5.4179,0,5.3374,5.3489,5.3518,5.3617,5.3675,5.369,5.3747,5.3796,5.3827,5.3882,5.3915,5.3977,5.3965,5.3989,5.4031,5.4069,5.4119,5.4063,5.4143,5.4145,5.4129,5.4217,5.4222,5.4301,5.419,5.4192,5.4194,0,5.3475,5.3533,5.3637,5.3703,5.3728,5.3778,5.3844,5.3895,5.3953,5.3973,5.4018,5.4033,5.4102,5.4076,5.4171,5.4133,5.4167,5.4191,5.4195,5.4204,5.4174,5.423,5.4326,5.4338,5.4212,5.421,5.4209,0,5.3514,5.3617,5.3694,5.3724,5.3801,5.3837,5.3871,5.3926,5.3966,5.4024,5.405,5.4114,5.415,5.42,5.4233,5.421,5.4327,5.4302,5.4346,5.4345,5.437,5.4369,5.4475,5.439,5.439,5.439,5.4389,0,5.3595,5.3658,5.3713,5.376,5.3832,5.3866,5.3937,5.3971,5.4021,5.4076,5.4092,5.4143,5.4183,5.424,5.4266,5.4342,5.4358,5.4376,5.4383,5.4376,5.4374,5.44,5.4396,5.4393,5.4392,5.4392,5.4391,0,5.3651,5.3689,5.3774,5.3842,5.386,5.3911,5.3969,5.4016,5.4048,5.4117,5.4135,5.4185,5.4253,5.4291,5.4376,5.4393,5.448,5.4482,5.4461,5.4464,5.4506,5.4502,5.4633,5.4653,5.4554,5.4555,5.4555,0,5.37,5.375,5.3823,5.3861,5.3896,5.3957,5.3999,5.4034,5.4076,5.4147,5.4186,5.4255,5.4312,5.442,5.4465,5.453,5.4536,5.4577,5.4546,5.4538,5.4539,5.4536,5.4542,5.4583,5.4584,5.4585,5.4585,0,5.3784,5.3801,5.386,5.3927,5.3976,5.403,5.4084,5.4114,5.4158,5.4205,5.4276,5.432,5.4408,5.4477,5.4547,5.4582,5.4592,5.4595,5.4609,5.4603,5.4589,5.4599,5.4477,5.4592,5.4591,5.4591,5.459,5.459,5.384,5.3886,5.3945,5.4011,5.4056,5.4106,5.4154,5.4193,5.4252,5.4327,5.4344,5.4419,5.4477,5.4572,5.4609,5.4669,5.4661,5.468,5.4686,5.4691,5.4693,5.4579,5.4681,5.4681,5.4681,5.4681,5.4681,0,5.3927,5.3966,5.4027,5.4102,5.4154,5.4159,5.4219,5.4263,5.4328,5.4382,5.4439,5.4521,5.4589,5.4639,5.4708,5.4746,5.4753,5.4764,5.4762,5.477,5.4695,5.4677,5.4757,5.4757,5.4757,5.4757,5.4757,5.4757,5.3978,5.4057,5.4082,5.4183,5.4222,5.4296,5.4331,5.4378,5.4421,5.4512,5.4569,5.4601,5.4654,5.4728,5.4791,5.4804,5.483,5.484,5.4854,5.4783,5.4775,5.4767,5.4751,5.4845,5.4845,5.4925,5.4926,5.4926]}]]